| time (UTC) | temp F | wind direction | speed MPH | gust MPH | rain 1hr in | rain 24hr in | rain mn in | humidity % | barometer mb |
| 20260507090007 | 54 | 255 | 1.0 | 7.0 | 0.00 | 0.00 | 0.00 | 26 | 1013.4 |
| 20260507084506 | 55 | 171 | 0.0 | 3.0 | 0.00 | 0.00 | 0.00 | 25 | 1013.4 |
| 20260507083006 | 55 | 243 | 0.0 | 3.0 | 0.00 | 0.00 | 0.00 | 27 | 1013.4 |
| 20260507081503 | 55 | 199 | 0.0 | 3.0 | 0.00 | 0.00 | 0.00 | 27 | 1013.4 |
| 20260507080001 | 54 | 186 | 0.0 | 4.0 | 0.00 | 0.00 | 0.00 | 27 | 1013.5 |
| 20260507074558 | 53 | 346 | 0.0 | 0.0 | 0.00 | 0.00 | 0.00 | 28 | 1013.5 |
| 20260507073055 | 53 | 346 | 0.0 | 0.0 | 0.00 | 0.00 | 0.00 | 29 | 1013.5 |
| 20260507071609 | 52 | 346 | 0.0 | 0.0 | 0.00 | 0.00 | 0.00 | 29 | 1013.6 |
| 20260507070053 | 52 | 346 | 0.0 | 1.0 | 0.00 | 0.00 | 0.00 | 30 | 1013.5 |
| 20260507064549 | 51 | 346 | 0.0 | 0.0 | 0.00 | 0.00 | 0.00 | 34 | 1013.5 |
| 20260507063047 | 50 | 346 | 0.0 | 0.0 | 0.00 | 0.00 | 0.00 | 35 | 1013.6 |
| 20260507061542 | 49 | 346 | 0.0 | 1.0 | 0.00 | 0.00 | 0.00 | 37 | 1013.6 |
| 20260507060039 | 47 | 346 | 0.0 | 0.0 | 0.00 | 0.00 | 0.00 | 42 | 1013.6 |
| 20260507054533 | 44 | 346 | 0.0 | 0.0 | 0.00 | 0.00 | 0.00 | 46 | 1013.5 |
| 20260507053044 | 41 | 346 | 0.0 | 0.0 | 0.00 | 0.00 | 0.00 | 51 | 1013.5 |
| 20260507051531 | 39 | 346 | 0.0 | 0.0 | 0.00 | 0.00 | 0.00 | 59 | 1013.4 |
| 20260507050022 | 35 | 346 | 0.0 | 0.0 | 0.00 | 0.00 | 0.00 | 67 | 1013.4 |
| 20260507044506 | 32 | 346 | 0.0 | 0.0 | 0.00 | 0.00 | 0.00 | 72 | 1013.5 |
| 20260507043007 | 30 | 346 | 0.0 | 0.0 | 0.00 | 0.00 | 0.00 | 75 | 1013.5 |
| 20260507041559 | 28 | 346 | 0.0 | 0.0 | 0.00 | 0.00 | 0.00 | 81 | 1013.6 |
| 20260507040107 | 26 | 346 | 0.0 | 0.0 | 0.00 | 0.00 | 0.00 | 83 | 1013.5 |
| 20260507034557 | 25 | 346 | 0.0 | 0.0 | 0.00 | 0.00 | 0.00 | 83 | 1013.5 |
| 20260507033057 | 23 | 346 | 0.0 | 0.0 | 0.00 | 0.00 | 0.00 | 84 | 1013.4 |
| 20260507031557 | 22 | 346 | 0.0 | 0.0 | 0.00 | 0.00 | 0.00 | 85 | 1013.4 |
| 20260507030057 | 22 | 346 | 0.0 | 0.0 | 0.00 | 0.00 | 0.00 | 85 | 1013.3 |
| 20260507024602 | 21 | 346 | 0.0 | 0.0 | 0.00 | 0.00 | 0.00 | 84 | 1013.3 |
| 20260507023054 | 22 | 346 | 0.0 | 0.0 | 0.00 | 0.00 | 0.00 | 84 | 1013.3 |
| 20260507021553 | 22 | 346 | 0.0 | 0.0 | 0.00 | 0.00 | 0.00 | 83 | 1013.3 |
| 20260507020052 | 22 | 346 | 0.0 | 0.0 | 0.00 | 0.00 | 0.00 | 84 | 1013.3 |
| 20260507014601 | 22 | 346 | 0.0 | 0.0 | 0.00 | 0.00 | 0.00 | 82 | 1013.2 |
| 20260507013051 | 22 | 346 | 0.0 | 0.0 | 0.00 | 0.00 | 0.00 | 82 | 1013.1 |
| 20260507011548 | 22 | 346 | 0.0 | 0.0 | 0.00 | 0.00 | 0.00 | 83 | 1013.1 |
| 20260507010049 | 22 | 346 | 0.0 | 0.0 | 0.00 | 0.00 | 0.00 | 82 | 1012.9 |
| 20260507004547 | 22 | 346 | 0.0 | 0.0 | 0.00 | 0.00 | 0.00 | 81 | 1012.8 |
| 20260507003042 | 23 | 346 | 0.0 | 0.0 | 0.00 | 0.00 | 0.00 | 80 | 1012.8 |
| 20260507001548 | 23 | 346 | 0.0 | 0.0 | 0.00 | 0.00 | 0.00 | 80 | 1012.8 |
| 20260507000039 | 23 | 346 | 0.0 | 0.0 | 0.00 | 0.00 | 0.00 | 79 | 1012.6 |
| 20260506234538 | 24 | 346 | 0.0 | 0.0 | 0.00 | 0.00 | 0.00 | 79 | 1012.6 |
| 20260506233036 | 24 | 346 | 0.0 | 0.0 | 0.00 | 0.00 | 0.00 | 78 | 1012.6 |
| 20260506231532 | 25 | 346 | 0.0 | 0.0 | 0.00 | 0.00 | 0.00 | 76 | 1012.5 |
| 20260506230031 | 25 | 346 | 0.0 | 0.0 | 0.00 | 0.00 | 0.00 | 75 | 1012.5 |
| 20260506224532 | 26 | 346 | 0.0 | 0.0 | 0.00 | 0.00 | 0.00 | 75 | 1012.5 |
| 20260506223029 | 26 | 346 | 0.0 | 0.0 | 0.00 | 0.00 | 0.00 | 73 | 1012.5 |
| 20260506221524 | 27 | 346 | 0.0 | 0.0 | 0.00 | 0.00 | 0.00 | 72 | 1012.3 |
| 20260506220033 | 27 | 346 | 0.0 | 0.0 | 0.00 | 0.00 | 0.00 | 70 | 1012.3 |
| 20260506214521 | 28 | 346 | 0.0 | 0.0 | 0.00 | 0.00 | 0.00 | 69 | 1012.2 |
| 20260506213018 | 28 | 346 | 0.0 | 0.0 | 0.00 | 0.00 | 0.00 | 70 | 1012.1 |
| 20260506211516 | 29 | 346 | 0.0 | 0.0 | 0.00 | 0.00 | 0.00 | 69 | 1012.1 |
| 20260506210015 | 29 | 346 | 0.0 | 0.0 | 0.00 | 0.00 | 0.00 | 68 | 1012.0 |
| 20260506204513 | 30 | 346 | 0.0 | 0.0 | 0.00 | 0.00 | 0.00 | 66 | 1012.0 |
| 20260506203019 | 31 | 346 | 0.0 | 0.0 | 0.00 | 0.00 | 0.00 | 65 | 1012.0 |
| 20260506201511 | 32 | 346 | 0.0 | 0.0 | 0.00 | 0.00 | 0.00 | 62 | 1012.1 |
| 20260506200012 | 33 | 346 | 0.0 | 0.0 | 0.00 | 0.00 | 0.00 | 58 | 1012.1 |
| 20260506194511 | 35 | 346 | 0.0 | 1.0 | 0.00 | 0.00 | 0.00 | 56 | 1012.1 |
| 20260506193009 | 36 | 347 | 0.0 | 0.0 | 0.00 | 0.00 | 0.00 | 57 | 1012.1 |
| 20260506191509 | 38 | 347 | 0.0 | 0.0 | 0.00 | 0.00 | 0.00 | 51 | 1012.1 |
| 20260506190007 | 40 | 347 | 0.0 | 0.0 | 0.00 | 0.00 | 0.00 | 47 | 1011.9 |
| 20260506184506 | 42 | 346 | 0.0 | 0.0 | 0.00 | 0.00 | 0.00 | 42 | 1011.8 |
| 20260506183006 | 45 | 346 | 0.0 | 0.0 | 0.00 | 0.00 | 0.00 | 36 | 1011.7 |
| 20260506181504 | 47 | 346 | 0.0 | 0.0 | 0.00 | 0.00 | 0.00 | 33 | 1011.7 |
| 20260506180008 | 48 | 346 | 0.0 | 1.0 | 0.00 | 0.00 | 0.00 | 32 | 1011.6 |
| 20260506174503 | 49 | 350 | 0.0 | 1.0 | 0.00 | 0.00 | 0.00 | 31 | 1011.5 |
| 20260506173003 | 49 | 350 | 0.0 | 0.0 | 0.00 | 0.00 | 0.00 | 30 | 1011.5 |
| 20260506171501 | 50 | 355 | 0.0 | 0.0 | 0.00 | 0.00 | 0.00 | 29 | 1011.4 |
| 20260506170000 | 51 | 355 | 0.0 | 1.0 | 0.00 | 0.00 | 0.00 | 27 | 1011.4 |
| 20260506164600 | 51 | 355 | 0.0 | 0.0 | 0.00 | 0.00 | 0.00 | 27 | 1011.3 |
| 20260506163105 | 52 | 355 | 0.0 | 1.0 | 0.00 | 0.00 | 0.00 | 26 | 1011.3 |
| 20260506161600 | 52 | 355 | 0.0 | 1.0 | 0.00 | 0.00 | 0.00 | 26 | 1011.1 |
| 20260506154558 | 52 | 325 | 0.0 | 4.0 | 0.00 | 0.00 | 0.00 | 25 | 1011.2 |
| 20260506153058 | 52 | 267 | 0.0 | 7.0 | 0.00 | 0.00 | 0.00 | 27 | 1011.2 |
| 20260506151556 | 52 | 301 | 0.0 | 2.0 | 0.00 | 0.00 | 0.00 | 24 | 1011.2 |
| 20260506150059 | 53 | 344 | 0.0 | 1.0 | 0.00 | 0.00 | 0.00 | 25 | 1011.1 |
| 20260506144606 | 53 | 344 | 0.0 | 0.0 | 0.00 | 0.00 | 0.00 | 25 | 1011.3 |
| 20260506143056 | 53 | 344 | 0.0 | 1.0 | 0.00 | 0.00 | 0.00 | 27 | 1011.3 |
| 20260506141555 | 53 | 344 | 0.0 | 5.0 | 0.00 | 0.00 | 0.00 | 26 | 1011.2 |
| 20260506140055 | 53 | 331 | 1.0 | 6.0 | 0.00 | 0.00 | 0.00 | 25 | 1011.3 |
| 20260506134558 | 53 | 22 | 0.0 | 3.0 | 0.00 | 0.00 | 0.00 | 23 | 1011.3 |
| 20260506133058 | 54 | 321 | 2.0 | 6.0 | 0.00 | 0.00 | 0.00 | 25 | 1011.4 |
| 20260506131551 | 53 | 309 | 0.0 | 6.0 | 0.00 | 0.00 | 0.00 | 26 | 1011.3 |
| 20260506130052 | 53 | 22 | 0.0 | 4.0 | 0.00 | 0.00 | 0.00 | 26 | 1011.2 |
| 20260506124550 | 52 | 279 | 2.0 | 9.0 | 0.00 | 0.00 | 0.00 | 26 | 1011.2 |
| 20260506123050 | 53 | 281 | 1.0 | 5.0 | 0.00 | 0.00 | 0.00 | 26 | 1011.3 |
| 20260506121547 | 52 | 29 | 0.0 | 7.0 | 0.00 | 0.00 | 0.00 | 28 | 1011.3 |
| 20260506120047 | 53 | 273 | 1.0 | 6.0 | 0.00 | 0.00 | 0.00 | 27 | 1011.2 |
| 20260506114547 | 52 | 272 | 2.0 | 11.0 | 0.00 | 0.00 | 0.00 | 29 | 1011.2 |
| 20260506113046 | 52 | 315 | 3.0 | 8.0 | 0.00 | 0.00 | 0.00 | 28 | 1011.3 |
| 20260506111544 | 51 | 298 | 3.0 | 11.0 | 0.00 | 0.00 | 0.00 | 27 | 1011.2 |
| 20260506110043 | 52 | 360 | 2.0 | 6.0 | 0.00 | 0.00 | 0.00 | 28 | 1011.1 |
| 20260506104546 | 53 | 274 | 0.0 | 6.0 | 0.00 | 0.00 | 0.00 | 30 | 1011.0 |
| 20260506103041 | 51 | 331 | 1.0 | 5.0 | 0.00 | 0.00 | 0.00 | 30 | 1011.0 |
| 20260506101538 | 52 | 326 | 1.0 | 6.0 | 0.00 | 0.00 | 0.00 | 27 | 1011.0 |
| 20260506100036 | 52 | 306 | 1.0 | 5.0 | 0.00 | 0.00 | 0.00 | 32 | 1011.0 |
| 20260506094533 | 50 | 281 | 0.0 | 9.0 | 0.00 | 0.00 | 0.00 | 33 | 1010.9 |
| 20260506093038 | 51 | 319 | 2.0 | 6.0 | 0.00 | 0.00 | 0.00 | 35 | 1010.8 |
| 20260506091531 | 49 | 286 | 1.0 | 8.0 | 0.00 | 0.00 | 0.00 | 39 | 1010.8 |